Location: Narrabri
(30.3170°S, 149.7830°E)
Time: 07:01:39
(UTC+10:00)

LightSail 2 - Visible Passes

Search period start: 22 August 2019 00:00
Search period end: 01 September 2019 00:00
Orbit: 701 x 732 km, 24.0° (Epoch: 21 August)

Date Brightness Start Highest point End Pass type
(mag) Time Alt. Az. Time Alt. Az. Time Alt. Az.
23 Aug 7.4 05:54:51 10° NNW 05:58:35 20° NNE 06:02:21 10° ENE visible
24 Aug 7.5 04:58:45 10° NNW 05:01:45 16° NNE 05:04:47 10° ENE visible
25 Aug 7.7 04:04:31 11° NNE 04:04:57 11° NNE 04:06:38 10° NE visible
25 Aug 6.8 05:45:36 10° NW 05:50:00 28° NNE 05:54:25 10° ENE visible
26 Aug 7.0 04:50:22 15° NNW 04:53:08 23° NNE 04:57:11 10° ENE visible
27 Aug 7.3 03:57:05 18° NNE 03:57:05 18° NNE 03:59:47 10° ENE visible
27 Aug 6.4 05:36:43 10° NW 05:41:25 35° N 05:46:09 10° ENE visible
28 Aug 6.5 04:42:47 25° NNW 04:44:31 31° NNE 04:49:04 10° ENE visible
29 Aug 7.2 03:49:23 21° NE 03:49:23 21° NE 03:51:54 10° ENE visible
29 Aug 6.1 05:28:25 12° WNW 05:32:51 40° N 05:37:43 10° ENE visible
30 Aug 6.0 04:34:58 34° NNW 04:35:56 37° N 04:40:42 10° ENE visible
31 Aug 7.2 03:41:29 22° ENE 03:41:29 22° ENE 03:43:38 10° ENE visible
31 Aug 6.0 05:20:31 16° WNW 05:24:17 41° N 05:29:10 10° ENE visible
